Showing default

COSMOS 2488, 39483

Orbit data source: Space-Track

COSMOS 2488, 39483 is a payload satellite owned by VVKO (CIS) in LEO that was launched on Wed, 25 Dec 2013 UTC via an ROKOT launch vehicle from the Plesetsk Missile And Space Complex (PKMTR). Payload-class satellites include a variety of spacecraft equipped with specific instruments for various scientific and technological missions. These include communications satellites like Starlink; space stations such as the ISS; scientific satellites like the Hubble; Earth observation satellites from companies like Planet Labs, Umbra, and HawkEye 360; GPS; miniature CubeSats for education and research; and military/defense satellites.

Loading next visibility...
Identifier
39483, 2013-076A
Orbit
LEO
Country
Flag of CISCIS
Related business
Manufacturer
Resehetnev ISS
Mission
Operational Civil Communications
Bus & Motor
STRELA-3M, Unknown motor
Mass
280 kg wet, 280 kg dry
Launch date (UTC)
2013-12-25 (12 years ago)
Launch vehicle
ROKOT
Launch site
Plesetsk Missile And Space Complex (PKMTR)
Object type
Payload
Rocket body
Debris
Shape & HBR
Cyl + 1 Ant, 3.5 m
Radar Cross Section
1.583 m², Large (>1 m²)

Expand to show TLE details & history
Last TLE update: 12 hours ago

TLE from 12 hours ago
0 COSMOS 2488
1 39483U 13076A   26131.17066442  .00000049  00000-0  28141-3 0  9999
2 39483  82.4859 191.7560 0019853 172.7009 187.4363 12.42904712561293
Epoch: 2026-05-11T04:05Z
TLE epoch observation values (Epoch: 2026-05-11T04:05:45.405Z)
Latitude
-0.00008°
Longitude
-98.64643°
Altitude
1,512.514 km
Speed
7.102 km/s
True Right ascension
12h 47m 01s
True Declination
0° 00' 00"
Sunlit
Object was in full shadow at epoch
Visualization orbit readout
Latitude
Unknown
Longitude
Unknown
Altitude
Unknown
Speed
Unknown
Apparent Right ascension
Unknown
Apparent Declination
Unknown
Sunlit
N/A
Visualization observer readout
Local Sidereal Time
23:56:26
Azimuth
Unknown
Elevation
Unknown
Doppler factor
Unknown
Orbital elements
Apogee altitude
1,507.289 km
Perigee altitude
1,476.042 km
Semi-major axis
7,869.803 km
Eccentricity
0.00199
Inclination
82.4859°
RAAN
191.756°
Arg. of periapsis
172.7009°
True anomaly
187.40693°
Mean anomaly
187.4363°
Eccentric anomaly
187.42161°
Mean motion
3.10883 °/min
Orbital period
115.8 mins
BSTAR
0.00028141
Loading maneuver chart data...
Computing Atmospheric mass density...
Loading historical data...
Loading historical data...
Loading historical data...
Loading historical data...
Loading historical data...
Loading historical data...
Loading historical data...

Documentation

Showing up to 5 results
|